owner,sensor,date,latitude,longitude,vertical_datum,sea_water_practical_salinity,qcFlag 
DISL,ioos:station:DISL:PPTA:1,2019-09-01T00:00:00Z,30.2791,-87.5561,1.495,27.46,11111222 
DISL,ioos:station:DISL:PPTA:1,2019-09-01T01:00:00Z,30.2791,-87.5561,1.473,26.88,11111222 
DISL,ioos:station:DISL:PPTA:1,2019-09-01T02:00:00Z,30.2791,-87.5561,1.482,24.57,11111222 
DISL,ioos:station:DISL:PPTA:1,2019-09-01T03:00:00Z,30.2791,-87.5561,1.457,26.13,11111222 
DISL,ioos:station:DISL:PPTA:1,2019-09-01T04:00:00Z,30.2791,-87.5561,1.47,23.01,11111222 
DISL,ioos:station:DISL:PPTA:1,2019-09-01T05:00:00Z,30.2791,-87.5561,1.501,23.88,11111222 
DISL,ioos:station:DISL:PPTA:1,2019-09-01T06:00:00Z,30.2791,-87.5561,1.501,24.16,11111222 
DISL,ioos:station:DISL:PPTA:1,2019-09-01T07:00:00Z,30.2791,-87.5561,1.462,26.63,11111222 
DISL,ioos:station:DISL:PPTA:1,2019-09-01T08:00:00Z,30.2791,-87.5561,1.481,26.24,11111222 
DISL,ioos:station:DISL:PPTA:1,2019-09-01T09:00:00Z,30.2791,-87.5561,1.448,25.68,11111222 
DISL,ioos:station:DISL:PPTA:1,2019-09-01T10:00:00Z,30.2791,-87.5561,1.462,19.01,11111222 
DISL,ioos:station:DISL:PPTA:1,2019-09-01T11:00:00Z,30.2791,-87.5561,1.512,17.59,11111222 
DISL,ioos:station:DISL:PPTA:1,2019-09-01T12:00:00Z,30.2791,-87.5561,1.529,26.48,11111222 
DISL,ioos:station:DISL:PPTA:1,2019-09-01T13:00:00Z,30.2791,-87.5561,1.546,27.83,11111222 
DISL,ioos:station:DISL:PPTA:1,2019-09-01T14:00:00Z,30.2791,-87.5561,1.589,28.0,11111222 
DISL,ioos:station:DISL:PPTA:1,2019-09-01T15:00:00Z,30.2791,-87.5561,1.609,28.9,11111222 
DISL,ioos:station:DISL:PPTA:1,2019-09-01T16:00:00Z,30.2791,-87.5561,1.635,28.96,11111222 
DISL,ioos:station:DISL:PPTA:1,2019-09-01T17:00:00Z,30.2791,-87.5561,1.62,28.93,11111222 
DISL,ioos:station:DISL:PPTA:1,2019-09-01T18:00:00Z,30.2791,-87.5561,1.653,28.47,11111222 
DISL,ioos:station:DISL:PPTA:1,2019-09-01T19:00:00Z,30.2791,-87.5561,1.656,28.5,11111222 
DISL,ioos:station:DISL:PPTA:1,2019-09-01T20:00:00Z,30.2791,-87.5561,1.635,28.43,11111222 
DISL,ioos:station:DISL:PPTA:1,2019-09-01T21:00:00Z,30.2791,-87.5561,1.592,27.83,11111222 
DISL,ioos:station:DISL:PPTA:1,2019-09-01T22:00:00Z,30.2791,-87.5561,1.563,26.03,11111222 
DISL,ioos:station:DISL:PPTA:1,2019-09-01T23:00:00Z,30.2791,-87.5561,1.58,27.38,11111222 
DISL,ioos:station:DISL:PPTA:1,2019-09-02T00:00:00Z,30.2791,-87.5561,1.553,27.17,11111222 
DISL,ioos:station:DISL:PPTA:1,2019-09-02T01:00:00Z,30.2791,-87.5561,1.556,25.11,11111222 
DISL,ioos:station:DISL:PPTA:1,2019-09-02T02:00:00Z,30.2791,-87.5561,1.567,23.04,11111222 
DISL,ioos:station:DISL:PPTA:1,2019-09-02T03:00:00Z,30.2791,-87.5561,1.56,23.21,11111222 
DISL,ioos:station:DISL:PPTA:1,2019-09-02T04:00:00Z,30.2791,-87.5561,1.548,23.39,11111222 
DISL,ioos:station:DISL:PPTA:1,2019-09-02T05:00:00Z,30.2791,-87.5561,1.536,21.94,11111222 
DISL,ioos:station:DISL:PPTA:1,2019-09-02T06:00:00Z,30.2791,-87.5561,1.544,19.53,11111222 
DISL,ioos:station:DISL:PPTA:1,2019-09-02T07:00:00Z,30.2791,-87.5561,1.589,22.51,11111222 
DISL,ioos:station:DISL:PPTA:1,2019-09-02T08:00:00Z,30.2791,-87.5561,1.508,21.95,11111222 
DISL,ioos:station:DISL:PPTA:1,2019-09-02T09:00:00Z,30.2791,-87.5561,1.49,21.99,11111222 
DISL,ioos:station:DISL:PPTA:1,2019-09-02T10:00:00Z,30.2791,-87.5561,1.498,16.75,11111222 
DISL,ioos:station:DISL:PPTA:1,2019-09-02T11:00:00Z,30.2791,-87.5561,1.494,22.97,11111222 
DISL,ioos:station:DISL:PPTA:1,2019-09-02T12:00:00Z,30.2791,-87.5561,1.491,20.93,11111222 
DISL,ioos:station:DISL:PPTA:1,2019-09-02T13:00:00Z,30.2791,-87.5561,1.5,16.28,11111222 
DISL,ioos:station:DISL:PPTA:1,2019-09-02T16:00:00Z,30.2791,-87.5561,1.523,22.8,11111222 
DISL,ioos:station:DISL:PPTA:1,2019-09-02T17:00:00Z,30.2791,-87.5561,1.519,25.2,11111222 
DISL,ioos:station:DISL:PPTA:1,2019-09-02T18:00:00Z,30.2791,-87.5561,1.535,26.04,11111222 
DISL,ioos:station:DISL:PPTA:1,2019-09-02T19:00:00Z,30.2791,-87.5561,1.55,26.44,11111222 
DISL,ioos:station:DISL:PPTA:1,2019-09-02T20:00:00Z,30.2791,-87.5561,1.548,26.78,11111222 
DISL,ioos:station:DISL:PPTA:1,2019-09-02T21:00:00Z,30.2791,-87.5561,1.529,27.17,11111222 
DISL,ioos:station:DISL:PPTA:1,2019-09-02T22:00:00Z,30.2791,-87.5561,1.518,26.82,11111222 
DISL,ioos:station:DISL:PPTA:1,2019-09-02T23:00:00Z,30.2791,-87.5561,1.521,22.07,11111222 
DISL,ioos:station:DISL:PPTA:1,2019-09-03T00:00:00Z,30.2791,-87.5561,1.542,24.83,11111222 
DISL,ioos:station:DISL:PPTA:1,2019-09-03T01:00:00Z,30.2791,-87.5561,1.536,22.29,11111222 
DISL,ioos:station:DISL:PPTA:1,2019-09-03T02:00:00Z,30.2791,-87.5561,1.546,23.25,11111222 
DISL,ioos:station:DISL:PPTA:1,2019-09-03T03:00:00Z,30.2791,-87.5561,1.555,19.47,11111222 
DISL,ioos:station:DISL:PPTA:1,2019-09-03T04:00:00Z,30.2791,-87.5561,1.557,24.45,11111222 
DISL,ioos:station:DISL:PPTA:1,2019-09-03T05:00:00Z,30.2791,-87.5561,1.534,26.02,11111222 
DISL,ioos:station:DISL:PPTA:1,2019-09-03T06:00:00Z,30.2791,-87.5561,1.57,26.46,11111222 
DISL,ioos:station:DISL:PPTA:1,2019-09-03T07:00:00Z,30.2791,-87.5561,1.536,26.59,11111222 
DISL,ioos:station:DISL:PPTA:1,2019-09-03T08:00:00Z,30.2791,-87.5561,1.536,26.57,11111222 
DISL,ioos:station:DISL:PPTA:1,2019-09-03T09:00:00Z,30.2791,-87.5561,1.508,25.8,11111222 
DISL,ioos:station:DISL:PPTA:1,2019-09-03T10:00:00Z,30.2791,-87.5561,1.508,20.21,11111222 
DISL,ioos:station:DISL:PPTA:1,2019-09-03T11:00:00Z,30.2791,-87.5561,1.473,21.93,11111222 
DISL,ioos:station:DISL:PPTA:1,2019-09-03T12:00:00Z,30.2791,-87.5561,1.476,18.37,11111222 
DISL,ioos:station:DISL:PPTA:1,2019-09-03T13:00:00Z,30.2791,-87.5561,1.435,21.47,11111222 
DISL,ioos:station:DISL:PPTA:1,2019-09-03T14:00:00Z,30.2791,-87.5561,1.442,20.1,11111222 
DISL,ioos:station:DISL:PPTA:1,2019-09-03T15:00:00Z,30.2791,-87.5561,1.429,19.54,11111222 
DISL,ioos:station:DISL:PPTA:1,2019-09-03T16:00:00Z,30.2791,-87.5561,1.434,16.84,11111222 
DISL,ioos:station:DISL:PPTA:1,2019-09-03T17:00:00Z,30.2791,-87.5561,1.45,16.64,11111222 
DISL,ioos:station:DISL:PPTA:1,2019-09-03T18:00:00Z,30.2791,-87.5561,1.429,16.24,11111222 
DISL,ioos:station:DISL:PPTA:1,2019-09-03T19:00:00Z,30.2791,-87.5561,1.427,16.25,11111222 
DISL,ioos:station:DISL:PPTA:1,2019-09-03T20:00:00Z,30.2791,-87.5561,1.422,21.84,11111222 
DISL,ioos:station:DISL:PPTA:1,2019-09-03T21:00:00Z,30.2791,-87.5561,1.426,25.32,11111222 
DISL,ioos:station:DISL:PPTA:1,2019-09-03T22:00:00Z,30.2791,-87.5561,1.434,26.6,11111222 
DISL,ioos:station:DISL:PPTA:1,2019-09-03T23:00:00Z,30.2791,-87.5561,1.431,26.46,11111222 
DISL,ioos:station:DISL:PPTA:1,2019-09-04T00:00:00Z,30.2791,-87.5561,1.438,26.53,11111222 
DISL,ioos:station:DISL:PPTA:1,2019-09-04T01:00:00Z,30.2791,-87.5561,1.47,26.16,11111222 
DISL,ioos:station:DISL:PPTA:1,2019-09-04T02:00:00Z,30.2791,-87.5561,1.508,26.21,11111222 
DISL,ioos:station:DISL:PPTA:1,2019-09-04T03:00:00Z,30.2791,-87.5561,1.537,25.92,11111222 
DISL,ioos:station:DISL:PPTA:1,2019-09-04T04:00:00Z,30.2791,-87.5561,1.537,25.81,11111222 
DISL,ioos:station:DISL:PPTA:1,2019-09-04T05:00:00Z,30.2791,-87.5561,1.564,26.26,11111222 
DISL,ioos:station:DISL:PPTA:1,2019-09-04T06:00:00Z,30.2791,-87.5561,1.573,26.68,11111222 
DISL,ioos:station:DISL:PPTA:1,2019-09-04T07:00:00Z,30.2791,-87.5561,1.562,26.8,11111222 
DISL,ioos:station:DISL:PPTA:1,2019-09-04T08:00:00Z,30.2791,-87.5561,1.55,26.8,11111222 
DISL,ioos:station:DISL:PPTA:1,2019-09-04T09:00:00Z,30.2791,-87.5561,1.531,25.33,11111222 
DISL,ioos:station:DISL:PPTA:1,2019-09-04T10:00:00Z,30.2791,-87.5561,1.514,24.82,11111222 
DISL,ioos:station:DISL:PPTA:1,2019-09-04T11:00:00Z,30.2791,-87.5561,1.48,24.24,11111222 
DISL,ioos:station:DISL:PPTA:1,2019-09-04T12:00:00Z,30.2791,-87.5561,1.447,23.71,11111222 
DISL,ioos:station:DISL:PPTA:1,2019-09-04T13:00:00Z,30.2791,-87.5561,1.413,22.88,11111222 
DISL,ioos:station:DISL:PPTA:1,2019-09-04T14:00:00Z,30.2791,-87.5561,1.386,21.09,11111222 
DISL,ioos:station:DISL:PPTA:1,2019-09-04T15:00:00Z,30.2791,-87.5561,1.346,23.05,11111222 
DISL,ioos:station:DISL:PPTA:1,2019-09-04T16:00:00Z,30.2791,-87.5561,1.353,19.31,11111222 
DISL,ioos:station:DISL:PPTA:1,2019-09-04T17:00:00Z,30.2791,-87.5561,1.328,20.16,11111222 
DISL,ioos:station:DISL:PPTA:1,2019-09-04T18:00:00Z,30.2791,-87.5561,1.32,20.83,11111222 
DISL,ioos:station:DISL:PPTA:1,2019-09-04T19:00:00Z,30.2791,-87.5561,1.309,18.23,11111222 
DISL,ioos:station:DISL:PPTA:1,2019-09-04T20:00:00Z,30.2791,-87.5561,1.3,17.16,11111222 
DISL,ioos:station:DISL:PPTA:1,2019-09-04T21:00:00Z,30.2791,-87.5561,1.304,17.43,11111222 
DISL,ioos:station:DISL:PPTA:1,2019-09-04T22:00:00Z,30.2791,-87.5561,1.323,16.35,11111222 
DISL,ioos:station:DISL:PPTA:1,2019-09-04T23:00:00Z,30.2791,-87.5561,1.322,17.51,11111222 
DISL,ioos:station:DISL:PPTA:1,2019-09-05T00:00:00Z,30.2791,-87.5561,1.318,21.21,11111222 
DISL,ioos:station:DISL:PPTA:1,2019-09-05T01:00:00Z,30.2791,-87.5561,1.327,25.22,11111222 
DISL,ioos:station:DISL:PPTA:1,2019-09-05T02:00:00Z,30.2791,-87.5561,1.367,25.95,11111222 
DISL,ioos:station:DISL:PPTA:1,2019-09-05T03:00:00Z,30.2791,-87.5561,1.39,26.92,11111222 
DISL,ioos:station:DISL:PPTA:1,2019-09-05T04:00:00Z,30.2791,-87.5561,1.423,27.47,11111222 
DISL,ioos:station:DISL:PPTA:1,2019-09-05T05:00:00Z,30.2791,-87.5561,1.461,28.46,11111222 
DISL,ioos:station:DISL:PPTA:1,2019-09-05T06:00:00Z,30.2791,-87.5561,1.472,28.53,11111222 
DISL,ioos:station:DISL:PPTA:1,2019-09-05T07:00:00Z,30.2791,-87.5561,1.472,28.24,11111222 
DISL,ioos:station:DISL:PPTA:1,2019-09-05T08:00:00Z,30.2791,-87.5561,1.482,28.29,11111222 
DISL,ioos:station:DISL:PPTA:1,2019-09-05T09:00:00Z,30.2791,-87.5561,1.474,28.22,11111222 
DISL,ioos:station:DISL:PPTA:1,2019-09-05T10:00:00Z,30.2791,-87.5561,1.462,28.13,11111222 
DISL,ioos:station:DISL:PPTA:1,2019-09-05T11:00:00Z,30.2791,-87.5561,1.437,25.94,11111222 
DISL,ioos:station:DISL:PPTA:1,2019-09-05T12:00:00Z,30.2791,-87.5561,1.405,26.99,11111222 
DISL,ioos:station:DISL:PPTA:1,2019-09-05T13:00:00Z,30.2791,-87.5561,1.382,26.08,11111222 
DISL,ioos:station:DISL:PPTA:1,2019-09-05T14:00:00Z,30.2791,-87.5561,1.342,25.19,11111222 
DISL,ioos:station:DISL:PPTA:1,2019-09-05T15:00:00Z,30.2791,-87.5561,1.313,24.43,11111222 
DISL,ioos:station:DISL:PPTA:1,2019-09-05T16:00:00Z,30.2791,-87.5561,1.287,23.7,11111222 
DISL,ioos:station:DISL:PPTA:1,2019-09-05T17:00:00Z,30.2791,-87.5561,1.27,22.2,11111222 
DISL,ioos:station:DISL:PPTA:1,2019-09-05T18:00:00Z,30.2791,-87.5561,1.241,22.3,11111222 
DISL,ioos:station:DISL:PPTA:1,2019-09-05T19:00:00Z,30.2791,-87.5561,1.225,19.63,11111222 
DISL,ioos:station:DISL:PPTA:1,2019-09-05T20:00:00Z,30.2791,-87.5561,1.208,18.8,11111222 
DISL,ioos:station:DISL:PPTA:1,2019-09-05T21:00:00Z,30.2791,-87.5561,1.202,22.19,11111222 
DISL,ioos:station:DISL:PPTA:1,2019-09-05T22:00:00Z,30.2791,-87.5561,1.2,19.76,11111222 
DISL,ioos:station:DISL:PPTA:1,2019-09-05T23:00:00Z,30.2791,-87.5561,1.21,20.01,11111222 
DISL,ioos:station:DISL:PPTA:1,2019-09-06T00:00:00Z,30.2791,-87.5561,1.208,19.61,11111222 
DISL,ioos:station:DISL:PPTA:1,2019-09-06T01:00:00Z,30.2791,-87.5561,1.227,21.15,11111222 
DISL,ioos:station:DISL:PPTA:1,2019-09-06T02:00:00Z,30.2791,-87.5561,1.246,26.67,11111222 
DISL,ioos:station:DISL:PPTA:1,2019-09-06T03:00:00Z,30.2791,-87.5561,1.288,28.5,11111222 
DISL,ioos:station:DISL:PPTA:1,2019-09-06T04:00:00Z,30.2791,-87.5561,1.315,29.11,11111222 
DISL,ioos:station:DISL:PPTA:1,2019-09-06T05:00:00Z,30.2791,-87.5561,1.342,29.28,11111222 
DISL,ioos:station:DISL:PPTA:1,2019-09-06T06:00:00Z,30.2791,-87.5561,1.375,29.44,11111222 
DISL,ioos:station:DISL:PPTA:1,2019-09-06T09:00:00Z,30.2791,-87.5561,1.391,29.68,11111222 
DISL,ioos:station:DISL:PPTA:1,2019-09-06T10:00:00Z,30.2791,-87.5561,1.393,29.82,11111222 
DISL,ioos:station:DISL:PPTA:1,2019-09-06T11:00:00Z,30.2791,-87.5561,1.383,29.94,11111222 
DISL,ioos:station:DISL:PPTA:1,2019-09-06T12:00:00Z,30.2791,-87.5561,1.35,27.86,11111222 
DISL,ioos:station:DISL:PPTA:1,2019-09-06T13:00:00Z,30.2791,-87.5561,1.331,27.13,11111222 
DISL,ioos:station:DISL:PPTA:1,2019-09-06T14:00:00Z,30.2791,-87.5561,1.292,27.85,11111222 
DISL,ioos:station:DISL:PPTA:1,2019-09-06T15:00:00Z,30.2791,-87.5561,1.279,27.24,11111222 
DISL,ioos:station:DISL:PPTA:1,2019-09-06T16:00:00Z,30.2791,-87.5561,1.244,27.06,11111222 
DISL,ioos:station:DISL:PPTA:1,2019-09-06T17:00:00Z,30.2791,-87.5561,1.213,27.24,11111222 
DISL,ioos:station:DISL:PPTA:1,2019-09-06T18:00:00Z,30.2791,-87.5561,1.193,25.38,11111222 
DISL,ioos:station:DISL:PPTA:1,2019-09-06T19:00:00Z,30.2791,-87.5561,1.181,21.89,11111222 
DISL,ioos:station:DISL:PPTA:1,2019-09-06T20:00:00Z,30.2791,-87.5561,1.17,20.49,11111222 
DISL,ioos:station:DISL:PPTA:1,2019-09-06T21:00:00Z,30.2791,-87.5561,1.169,20.46,11111222 
DISL,ioos:station:DISL:PPTA:1,2019-09-06T22:00:00Z,30.2791,-87.5561,1.191,18.78,11111222 
DISL,ioos:station:DISL:PPTA:1,2019-09-06T23:00:00Z,30.2791,-87.5561,1.175,18.85,11111222 
DISL,ioos:station:DISL:PPTA:1,2019-09-07T00:00:00Z,30.2791,-87.5561,1.204,20.6,11111222 
DISL,ioos:station:DISL:PPTA:1,2019-09-07T01:00:00Z,30.2791,-87.5561,1.22,25.76,11111222 
DISL,ioos:station:DISL:PPTA:1,2019-09-07T02:00:00Z,30.2791,-87.5561,1.255,29.24,11111222 
DISL,ioos:station:DISL:PPTA:1,2019-09-07T03:00:00Z,30.2791,-87.5561,1.31,30.13,11111222 
DISL,ioos:station:DISL:PPTA:1,2019-09-07T04:00:00Z,30.2791,-87.5561,1.336,30.44,11111222 
DISL,ioos:station:DISL:PPTA:1,2019-09-07T05:00:00Z,30.2791,-87.5561,1.371,30.46,11111222 
DISL,ioos:station:DISL:PPTA:1,2019-09-07T06:00:00Z,30.2791,-87.5561,1.404,30.4,11111222 
DISL,ioos:station:DISL:PPTA:1,2019-09-07T07:00:00Z,30.2791,-87.5561,1.446,30.39,11111222 
DISL,ioos:station:DISL:PPTA:1,2019-09-07T08:00:00Z,30.2791,-87.5561,1.46,30.38,11111222 
DISL,ioos:station:DISL:PPTA:1,2019-09-07T09:00:00Z,30.2791,-87.5561,1.464,30.35,11111222 
DISL,ioos:station:DISL:PPTA:1,2019-09-07T10:00:00Z,30.2791,-87.5561,1.474,30.36,11111222 
DISL,ioos:station:DISL:PPTA:1,2019-09-07T11:00:00Z,30.2791,-87.5561,1.489,30.35,11111222 
DISL,ioos:station:DISL:PPTA:1,2019-09-07T12:00:00Z,30.2791,-87.5561,1.475,30.02,11111222 
DISL,ioos:station:DISL:PPTA:1,2019-09-07T13:00:00Z,30.2791,-87.5561,1.446,30.05,11111222 
DISL,ioos:station:DISL:PPTA:1,2019-09-07T14:00:00Z,30.2791,-87.5561,1.396,29.97,11111222 
DISL,ioos:station:DISL:PPTA:1,2019-09-07T15:00:00Z,30.2791,-87.5561,1.378,29.06,11111222 
DISL,ioos:station:DISL:PPTA:1,2019-09-07T16:00:00Z,30.2791,-87.5561,1.346,28.48,11111222 
DISL,ioos:station:DISL:PPTA:1,2019-09-07T17:00:00Z,30.2791,-87.5561,1.322,26.82,11111222 
DISL,ioos:station:DISL:PPTA:1,2019-09-07T18:00:00Z,30.2791,-87.5561,1.274,26.24,11111222 
DISL,ioos:station:DISL:PPTA:1,2019-09-07T19:00:00Z,30.2791,-87.5561,1.243,25.94,11111222 
DISL,ioos:station:DISL:PPTA:1,2019-09-07T20:00:00Z,30.2791,-87.5561,1.226,24.5,11111222 
DISL,ioos:station:DISL:PPTA:1,2019-09-07T21:00:00Z,30.2791,-87.5561,1.197,23.07,11111222 
DISL,ioos:station:DISL:PPTA:1,2019-09-07T22:00:00Z,30.2791,-87.5561,1.198,21.49,11111222 
DISL,ioos:station:DISL:PPTA:1,2019-09-07T23:00:00Z,30.2791,-87.5561,1.213,20.57,11111222 
DISL,ioos:station:DISL:PPTA:1,2019-09-08T00:00:00Z,30.2791,-87.5561,1.209,26.69,11111222 
DISL,ioos:station:DISL:PPTA:1,2019-09-08T01:00:00Z,30.2791,-87.5561,1.24,22.1,11111222 
DISL,ioos:station:DISL:PPTA:1,2019-09-08T02:00:00Z,30.2791,-87.5561,1.275,22.46,11111222 
DISL,ioos:station:DISL:PPTA:1,2019-09-08T03:00:00Z,30.2791,-87.5561,1.288,29.05,11111222 
DISL,ioos:station:DISL:PPTA:1,2019-09-08T04:00:00Z,30.2791,-87.5561,1.325,30.31,11111222 
DISL,ioos:station:DISL:PPTA:1,2019-09-08T05:00:00Z,30.2791,-87.5561,1.364,31.04,11111222 
DISL,ioos:station:DISL:PPTA:1,2019-09-08T06:00:00Z,30.2791,-87.5561,1.398,31.39,11111222 
DISL,ioos:station:DISL:PPTA:1,2019-09-08T07:00:00Z,30.2791,-87.5561,1.451,31.61,11111222 
DISL,ioos:station:DISL:PPTA:1,2019-09-08T08:00:00Z,30.2791,-87.5561,1.481,31.73,11111222 
DISL,ioos:station:DISL:PPTA:1,2019-09-08T09:00:00Z,30.2791,-87.5561,1.497,31.69,11111222 
DISL,ioos:station:DISL:PPTA:1,2019-09-08T10:00:00Z,30.2791,-87.5561,1.52,31.77,11111222 
DISL,ioos:station:DISL:PPTA:1,2019-09-08T11:00:00Z,30.2791,-87.5561,1.528,31.77,11111222 
DISL,ioos:station:DISL:PPTA:1,2019-09-08T12:00:00Z,30.2791,-87.5561,1.542,31.47,11111222 
DISL,ioos:station:DISL:PPTA:1,2019-09-08T13:00:00Z,30.2791,-87.5561,1.54,31.19,11111222 
DISL,ioos:station:DISL:PPTA:1,2019-09-08T14:00:00Z,30.2791,-87.5561,1.526,30.91,11111222 
DISL,ioos:station:DISL:PPTA:1,2019-09-08T15:00:00Z,30.2791,-87.5561,1.479,30.23,11111222 
DISL,ioos:station:DISL:PPTA:1,2019-09-08T16:00:00Z,30.2791,-87.5561,1.462,29.24,11111222 
DISL,ioos:station:DISL:PPTA:1,2019-09-08T17:00:00Z,30.2791,-87.5561,1.426,30.05,11111222 
DISL,ioos:station:DISL:PPTA:1,2019-09-08T18:00:00Z,30.2791,-87.5561,1.394,28.24,11111222 
DISL,ioos:station:DISL:PPTA:1,2019-09-08T19:00:00Z,30.2791,-87.5561,1.36,27.92,11111222 
DISL,ioos:station:DISL:PPTA:1,2019-09-08T20:00:00Z,30.2791,-87.5561,1.328,27.74,11111222 
DISL,ioos:station:DISL:PPTA:1,2019-09-08T21:00:00Z,30.2791,-87.5561,1.308,25.64,11111222 
DISL,ioos:station:DISL:PPTA:1,2019-09-08T22:00:00Z,30.2791,-87.5561,1.309,23.58,11111222 
DISL,ioos:station:DISL:PPTA:1,2019-09-08T23:00:00Z,30.2791,-87.5561,1.298,24.02,11111222 
DISL,ioos:station:DISL:PPTA:1,2019-09-09T00:00:00Z,30.2791,-87.5561,1.299,22.44,11111222 
DISL,ioos:station:DISL:PPTA:1,2019-09-09T01:00:00Z,30.2791,-87.5561,1.318,24.98,11111222 
DISL,ioos:station:DISL:PPTA:1,2019-09-09T02:00:00Z,30.2791,-87.5561,1.33,24.27,11111222 
DISL,ioos:station:DISL:PPTA:1,2019-09-09T03:00:00Z,30.2791,-87.5561,1.353,25.68,11111222 
DISL,ioos:station:DISL:PPTA:1,2019-09-09T04:00:00Z,30.2791,-87.5561,1.375,28.5,11111222 
DISL,ioos:station:DISL:PPTA:1,2019-09-09T05:00:00Z,30.2791,-87.5561,1.392,29.47,11111222 
DISL,ioos:station:DISL:PPTA:1,2019-09-09T06:00:00Z,30.2791,-87.5561,1.417,30.04,11111222 
DISL,ioos:station:DISL:PPTA:1,2019-09-09T07:00:00Z,30.2791,-87.5561,1.446,30.3,11111222 
DISL,ioos:station:DISL:PPTA:1,2019-09-09T08:00:00Z,30.2791,-87.5561,1.487,30.34,11111222 
DISL,ioos:station:DISL:PPTA:1,2019-09-09T09:00:00Z,30.2791,-87.5561,1.521,29.64,11111222 
DISL,ioos:station:DISL:PPTA:1,2019-09-09T10:00:00Z,30.2791,-87.5561,1.544,29.59,11111222 
DISL,ioos:station:DISL:PPTA:1,2019-09-09T11:00:00Z,30.2791,-87.5561,1.56,29.4,11111222 
DISL,ioos:station:DISL:PPTA:1,2019-09-09T12:00:00Z,30.2791,-87.5561,1.573,29.15,11111222 
DISL,ioos:station:DISL:PPTA:1,2019-09-09T13:00:00Z,30.2791,-87.5561,1.577,29.48,11111222 
DISL,ioos:station:DISL:PPTA:1,2019-09-09T14:00:00Z,30.2791,-87.5561,1.56,29.54,11111222 
DISL,ioos:station:DISL:PPTA:1,2019-09-09T15:00:00Z,30.2791,-87.5561,1.522,30.14,11111222 
DISL,ioos:station:DISL:PPTA:1,2019-09-09T16:00:00Z,30.2791,-87.5561,1.502,27.64,11111222 
DISL,ioos:station:DISL:PPTA:1,2019-09-09T17:00:00Z,30.2791,-87.5561,1.471,28.5,11111222 
DISL,ioos:station:DISL:PPTA:1,2019-09-09T18:00:00Z,30.2791,-87.5561,1.447,27.35,11111222 
DISL,ioos:station:DISL:PPTA:1,2019-09-09T19:00:00Z,30.2791,-87.5561,1.406,26.39,11111222 
DISL,ioos:station:DISL:PPTA:1,2019-09-09T23:00:00Z,30.2791,-87.5561,1.347,23.63,11111222 
DISL,ioos:station:DISL:PPTA:1,2019-09-10T00:00:00Z,30.2791,-87.5561,1.348,22.93,11111222 
DISL,ioos:station:DISL:PPTA:1,2019-09-10T01:00:00Z,30.2791,-87.5561,1.354,23.25,11111222 
DISL,ioos:station:DISL:PPTA:1,2019-09-10T02:00:00Z,30.2791,-87.5561,1.369,24.78,11111222 
DISL,ioos:station:DISL:PPTA:1,2019-09-10T03:00:00Z,30.2791,-87.5561,1.396,27.55,11111222 
DISL,ioos:station:DISL:PPTA:1,2019-09-10T04:00:00Z,30.2791,-87.5561,1.403,26.87,11111222 
DISL,ioos:station:DISL:PPTA:1,2019-09-10T05:00:00Z,30.2791,-87.5561,1.402,28.05,11111222 
DISL,ioos:station:DISL:PPTA:1,2019-09-10T06:00:00Z,30.2791,-87.5561,1.451,28.19,11111222 
DISL,ioos:station:DISL:PPTA:1,2019-09-10T07:00:00Z,30.2791,-87.5561,1.494,28.33,11111222 
DISL,ioos:station:DISL:PPTA:1,2019-09-10T08:00:00Z,30.2791,-87.5561,1.52,28.29,11111222 
DISL,ioos:station:DISL:PPTA:1,2019-09-10T09:00:00Z,30.2791,-87.5561,1.546,28.36,11111222 
DISL,ioos:station:DISL:PPTA:1,2019-09-10T10:00:00Z,30.2791,-87.5561,1.592,28.34,11111222 
DISL,ioos:station:DISL:PPTA:1,2019-09-10T11:00:00Z,30.2791,-87.5561,1.638,28.32,11111222 
DISL,ioos:station:DISL:PPTA:1,2019-09-10T12:00:00Z,30.2791,-87.5561,1.634,28.31,11111222 
DISL,ioos:station:DISL:PPTA:1,2019-09-10T13:00:00Z,30.2791,-87.5561,1.645,28.29,11111222 
DISL,ioos:station:DISL:PPTA:1,2019-09-10T14:00:00Z,30.2791,-87.5561,1.611,28.3,11111222 
DISL,ioos:station:DISL:PPTA:1,2019-09-10T15:00:00Z,30.2791,-87.5561,1.588,28.33,11111222 
DISL,ioos:station:DISL:PPTA:1,2019-09-10T16:00:00Z,30.2791,-87.5561,1.574,28.23,11111222 
DISL,ioos:station:DISL:PPTA:1,2019-09-10T17:00:00Z,30.2791,-87.5561,1.532,27.99,11111222 
DISL,ioos:station:DISL:PPTA:1,2019-09-10T18:00:00Z,30.2791,-87.5561,1.499,27.97,11111222 
DISL,ioos:station:DISL:PPTA:1,2019-09-10T19:00:00Z,30.2791,-87.5561,1.465,27.26,11111222 
DISL,ioos:station:DISL:PPTA:1,2019-09-10T20:00:00Z,30.2791,-87.5561,1.42,26.74,11111222 
DISL,ioos:station:DISL:PPTA:1,2019-09-10T21:00:00Z,30.2791,-87.5561,1.384,25.25,11111222 
DISL,ioos:station:DISL:PPTA:1,2019-09-10T22:00:00Z,30.2791,-87.5561,1.37,24.9,11111222 
DISL,ioos:station:DISL:PPTA:1,2019-09-10T23:00:00Z,30.2791,-87.5561,1.342,24.23,11111222 
DISL,ioos:station:DISL:PPTA:1,2019-09-11T00:00:00Z,30.2791,-87.5561,1.345,23.86,11111222 
DISL,ioos:station:DISL:PPTA:1,2019-09-11T01:00:00Z,30.2791,-87.5561,1.336,22.85,11111222 
DISL,ioos:station:DISL:PPTA:1,2019-09-11T02:00:00Z,30.2791,-87.5561,1.347,24.71,11111222 
DISL,ioos:station:DISL:PPTA:1,2019-09-11T03:00:00Z,30.2791,-87.5561,1.365,23.55,11111222 
DISL,ioos:station:DISL:PPTA:1,2019-09-11T04:00:00Z,30.2791,-87.5561,1.377,25.03,11111222 
DISL,ioos:station:DISL:PPTA:1,2019-09-11T05:00:00Z,30.2791,-87.5561,1.387,26.61,11111222 
DISL,ioos:station:DISL:PPTA:1,2019-09-11T06:00:00Z,30.2791,-87.5561,1.408,27.29,11111222 
DISL,ioos:station:DISL:PPTA:1,2019-09-11T07:00:00Z,30.2791,-87.5561,1.426,27.58,11111222 
DISL,ioos:station:DISL:PPTA:1,2019-09-11T08:00:00Z,30.2791,-87.5561,1.436,27.54,11111222 
DISL,ioos:station:DISL:PPTA:1,2019-09-11T09:00:00Z,30.2791,-87.5561,1.483,28.15,11111222 
DISL,ioos:station:DISL:PPTA:1,2019-09-11T10:00:00Z,30.2791,-87.5561,1.525,28.09,11111222 
DISL,ioos:station:DISL:PPTA:1,2019-09-11T11:00:00Z,30.2791,-87.5561,1.57,28.09,11111222 
DISL,ioos:station:DISL:PPTA:1,2019-09-11T12:00:00Z,30.2791,-87.5561,1.574,28.02,11111222 
DISL,ioos:station:DISL:PPTA:1,2019-09-11T13:00:00Z,30.2791,-87.5561,1.592,27.91,11111222 
DISL,ioos:station:DISL:PPTA:1,2019-09-11T14:00:00Z,30.2791,-87.5561,1.603,28.1,11111222 
DISL,ioos:station:DISL:PPTA:1,2019-09-11T15:00:00Z,30.2791,-87.5561,1.61,28.19,11111222 
DISL,ioos:station:DISL:PPTA:1,2019-09-11T16:00:00Z,30.2791,-87.5561,1.587,27.84,11111222 
DISL,ioos:station:DISL:PPTA:1,2019-09-11T17:00:00Z,30.2791,-87.5561,1.554,27.94,11111222 
DISL,ioos:station:DISL:PPTA:1,2019-09-11T18:00:00Z,30.2791,-87.5561,1.517,27.36,11111222 
DISL,ioos:station:DISL:PPTA:1,2019-09-11T19:00:00Z,30.2791,-87.5561,1.488,27.18,11111222 
DISL,ioos:station:DISL:PPTA:1,2019-09-11T20:00:00Z,30.2791,-87.5561,1.462,26.81,11111222 
DISL,ioos:station:DISL:PPTA:1,2019-09-11T21:00:00Z,30.2791,-87.5561,1.446,26.12,11111222 
DISL,ioos:station:DISL:PPTA:1,2019-09-11T22:00:00Z,30.2791,-87.5561,1.412,26.05,11111222 
DISL,ioos:station:DISL:PPTA:1,2019-09-11T23:00:00Z,30.2791,-87.5561,1.42,24.67,11111222 
DISL,ioos:station:DISL:PPTA:1,2019-09-12T00:00:00Z,30.2791,-87.5561,1.417,23.57,11111222 
DISL,ioos:station:DISL:PPTA:1,2019-09-12T01:00:00Z,30.2791,-87.5561,1.392,23.61,11111222 
DISL,ioos:station:DISL:PPTA:1,2019-09-12T02:00:00Z,30.2791,-87.5561,1.412,25.03,11111222 
DISL,ioos:station:DISL:PPTA:1,2019-09-12T03:00:00Z,30.2791,-87.5561,1.414,23.67,11111222 
DISL,ioos:station:DISL:PPTA:1,2019-09-12T04:00:00Z,30.2791,-87.5561,1.422,25.7,11111222 
DISL,ioos:station:DISL:PPTA:1,2019-09-12T05:00:00Z,30.2791,-87.5561,1.433,26.11,11111222 
DISL,ioos:station:DISL:PPTA:1,2019-09-12T06:00:00Z,30.2791,-87.5561,1.449,26.48,11111222 
DISL,ioos:station:DISL:PPTA:1,2019-09-12T07:00:00Z,30.2791,-87.5561,1.447,26.79,11111222 
DISL,ioos:station:DISL:PPTA:1,2019-09-12T08:00:00Z,30.2791,-87.5561,1.441,27.83,11111222 